Racine, WI

7:28 PM CST on December 16, 2017 (GMT -0600)
Batten

Weather History for KRAC - March, 2013

Change the Weather History Date:

Sunday, March 24, 2013

  Actual Average Record
Temperature  
Mean Temperature 35 °F -  
Max Temperature 37 °F 42 °F 70 °F (2017)
Min Temperature 33 °F 27 °F 0 °F (1974)
Degree Days  
Heating Degree Days 30    
Moisture  
Dew Point 27 °F    
Average Humidity 71    
Maximum Humidity 81    
Minimum Humidity 64    
Precipitation  
Precipitation 0.00 in - - ()
Sea Level Pressure  
Sea Level Pressure 29.87 in    
Wind  
Wind Speed 14 mph (NE)    
Max Wind Speed 25 mph    
Max Gust Speed 34 mph    
Visibility 10 miles    
Events      
Averages and records for this station are not official NWS values.
T = Trace of Precipitation, MM = Missing Value Source: NWS Daily Summary

Daily Weather History Graph

Daily Weather History Graph

Search for Another Location

Airport or City:

Trip Planner

Search our weather history database for the weather conditions in past years. The results will help you decide how hot, cold, wet, or windy it might be!

Date:

Astronomy

Mar. 24, 2013 Rise Set
Actual Time 6:47 AM CDT 7:08 PM CDT
Civil Twilight 6:18 AM CDT 7:36 PM CDT
Nautical Twilight 5:45 AM CDT 8:10 PM CDT
Astronomical Twilight 5:11 AM CDT 8:44 PM CDT
Moon 4:33 PM CDT (3/24) 5:00 AM CDT (3/24)
Length of Visible Light 13h 18m
Length of Day
12h 21m
Waxing Gibbous, 92% of the Moon is Illuminated
Mar 24
Waxing Gibbous
Mar 27
Full
Apr 2
Last Quarter
Apr 10
New
Apr 18
First Quarter

Hourly Weather History & Observations

Time (CDT) Temp. Windchill Dew Point Humidity Pressure Visibility Wind Dir Wind Speed Gust Speed Precip Events Conditions
12:53 AM 33.1 °F 27.7 °F 23.0 °F 66% 30.08 in 10.0 mi NNE 5.8 mph - N/A   Overcast
1:53 AM 34.0 °F 29.8 °F 25.0 °F 70% 30.07 in 10.0 mi NNE 4.6 mph - N/A   Overcast
2:53 AM 34.0 °F 25.0 °F 26.1 °F 73% 30.04 in 10.0 mi NE 12.7 mph - N/A   Overcast
3:00 AM 33.8 °F 25.3 °F 26.6 °F 75% 30.01 in 10.0 mi NE 11.5 mph - N/A   Overcast
3:18 AM 33.8 °F 24.8 °F 26.6 °F 75% 30.01 in 10.0 mi NE 12.7 mph - N/A   Overcast
3:45 AM 35.6 °F 27.1 °F 26.6 °F 70% 30.00 in 10.0 mi ENE 12.7 mph - N/A   Overcast
3:53 AM 35.1 °F 26.9 °F 26.1 °F 70% 30.02 in 10.0 mi ENE 11.5 mph - N/A   Overcast
4:53 AM 34.0 °F 25.5 °F 27.0 °F 75% 30.01 in 10.0 mi ENE 11.5 mph - N/A   Mostly Cloudy
5:53 AM 35.1 °F 26.4 °F 25.0 °F 67% 29.99 in 10.0 mi ENE 12.7 mph - N/A   Overcast
6:37 AM 33.8 °F 23.9 °F 24.8 °F 70% 29.96 in 10.0 mi East 15.0 mph - N/A   Overcast
6:53 AM 34.0 °F 24.6 °F 25.0 °F 70% 29.98 in 10.0 mi ENE 13.8 mph - N/A   Overcast
7:53 AM 34.0 °F 25.0 °F 25.0 °F 70% 29.97 in 10.0 mi ENE 12.7 mph 21.9 mph N/A   Overcast
8:53 AM 34.0 °F 24.2 °F 25.0 °F 70% 29.96 in 10.0 mi ENE 15.0 mph 23.0 mph N/A   Overcast
9:41 AM 35.6 °F 25.9 °F 24.8 °F 65% 29.93 in 10.0 mi ENE 16.1 mph 24.2 mph N/A   Overcast
9:53 AM 35.1 °F 25.5 °F 25.0 °F 67% 29.95 in 10.0 mi ENE 15.0 mph - N/A   Overcast
10:53 AM 37.0 °F 27.7 °F 27.0 °F 67% 29.91 in 10.0 mi NE 16.1 mph - N/A   Overcast
11:53 AM 36.0 °F 25.6 °F 27.0 °F 70% 29.88 in 10.0 mi ENE 18.4 mph 25.3 mph N/A   Overcast
12:53 PM 37.9 °F 27.9 °F 28.9 °F 70% 29.86 in 10.0 mi NE 19.6 mph 26.5 mph N/A   Overcast
1:31 PM 37.4 °F 27.5 °F 26.6 °F 65% 29.83 in 10.0 mi ENE 18.4 mph - N/A   Mostly Cloudy
1:53 PM 37.9 °F 27.9 °F 27.0 °F 65% 29.83 in 10.0 mi NE 19.6 mph 29.9 mph N/A   Mostly Cloudy
2:53 PM 36.0 °F 25.3 °F 27.0 °F 70% 29.81 in 10.0 mi NE 19.6 mph 28.8 mph N/A   Overcast
3:19 PM 35.6 °F 25.2 °F 28.4 °F 75% 29.78 in 10.0 mi NNE 18.4 mph 27.6 mph N/A   Overcast
3:36 PM 35.6 °F 24.5 °F 28.4 °F 75% 29.76 in 10.0 mi NNE 20.7 mph 27.6 mph N/A   Overcast
3:53 PM 35.1 °F 23.5 °F 28.0 °F 76% 29.78 in 10.0 mi NE 21.9 mph 32.2 mph N/A   Overcast
4:05 PM 35.6 °F 24.2 °F 28.4 °F 75% 29.75 in 10.0 mi NNE 21.9 mph 31.1 mph N/A   Overcast
4:39 PM 33.8 °F 22.8 °F 28.4 °F 81% 29.73 in 10.0 mi NNE 18.4 mph 27.6 mph N/A   Overcast
4:53 PM 35.1 °F 24.1 °F 28.9 °F 78% 29.75 in 10.0 mi NNE 19.6 mph 29.9 mph N/A   Overcast
5:10 PM 35.6 °F 25.2 °F 28.4 °F 75% 29.73 in 10.0 mi NNE 18.4 mph 28.8 mph N/A   Overcast
5:38 PM 35.6 °F 24.8 °F 26.6 °F 70% 29.74 in 10.0 mi NNE 19.6 mph 32.2 mph N/A   Overcast
5:53 PM 35.1 °F 24.1 °F 27.0 °F 72% 29.76 in 10.0 mi NNE 19.6 mph 25.3 mph N/A   Overcast
6:53 PM 36.0 °F 25.3 °F 28.0 °F 73% 29.78 in 10.0 mi NNE 19.6 mph 29.9 mph N/A   Overcast
7:11 PM 35.6 °F 24.2 °F 28.4 °F 75% 29.77 in 10.0 mi NNE 21.9 mph 32.2 mph N/A   Overcast
7:51 PM 35.6 °F 24.0 °F 26.6 °F 70% 29.77 in 10.0 mi NNE 23.0 mph 31.1 mph N/A   Overcast
7:53 PM 36.0 °F 24.7 °F 26.1 °F 67% 29.79 in 10.0 mi NNE 21.9 mph 31.1 mph N/A   Overcast
8:53 PM 35.1 °F 23.5 °F 25.0 °F 67% 29.79 in 10.0 mi North 21.9 mph 31.1 mph N/A   Overcast
10:53 PM 36.0 °F 23.9 °F 25.0 °F 64% 29.79 in 10.0 mi NNE 25.3 mph 34.5 mph N/A   Overcast
11:26 PM 35.6 °F 24.0 °F 24.8 °F 65% 29.76 in 10.0 mi NNE 23.0 mph 34.5 mph N/A   Overcast
11:53 PM 35.1 °F 23.8 °F 26.1 °F 70% 29.78 in 10.0 mi NNE 20.7 mph 32.2 mph N/A   Mostly Cloudy